User: anonymous   Login
Location: Unspecified
(0.0000°N, 0.0000°E)
Time: 23:04:32
(UTC+02:00)
Language:

ARIANE 5 R/B - Orbit

View from above orbital plane
View from above orbital plane
View from above satellite
View from above satellite

Ground track
Ground track

The orbit data is extracted from the following two-line orbital elements,

1 28787U 05028B   16235.73681830 -.00000173 +00000-0 -23621-3 0  9990
2 28787 006.7780 150.5525 7170366 336.4024 005.6659 02.26570007091322
Epoch (UTC): 22 August 2016 17:41:01
Eccentricity: 0.7170366
inclination: 6.7780°
perigee height: 551 km
apogee height: 35666 km
right ascension of ascending node: 150.5525°
argument of perigee: 336.4024°
revolutions per day: 2.26570007
mean anomaly at epoch: 5.6659°
orbit number at epoch: 9132

The dashed part of the orbit path shows where the satellite is in the earth's shadow,  

DLR